EW4729 Weather Reports


Display with metric or nautical units.
time (UTC)temp
F
wind
direction
speed
MPH
gust
MPH
rain 1hr
in
rain 24hr
in
rain mn
in
humidity
%
barometer
mb
20240622083519 75 132 0.0 0.0 0.00 0.00 0.00 92 1017.4
20240622083019 75 132 0.0 0.0 0.00 0.00 0.00 92 1017.5
20240622082519 75 132 0.0 0.0 0.00 0.00 0.00 92 1017.4
20240622082022 75 132 0.0 0.0 0.00 0.00 0.00 92 1017.4
20240622081531 75 132 0.0 0.0 0.00 0.00 0.00 92 1017.4
20240622081019 75 132 0.0 0.0 0.00 0.00 0.00 92 1017.4
20240622080517 75 132 0.0 0.0 0.00 0.00 0.00 92 1017.4
20240622075520 76 132 0.0 0.0 0.00 0.00 0.00 92 1017.5
20240622075017 76 132 0.0 0.0 0.00 0.00 0.00 92 1017.5
20240622074517 76 132 0.0 0.0 0.00 0.00 0.00 91 1017.5
20240622074019 76 132 0.0 0.0 0.00 0.00 0.00 92 1017.5
20240622073516 76 132 0.0 0.0 0.00 0.00 0.00 92 1017.5
20240622073018 76 132 0.0 0.0 0.00 0.00 0.00 92 1017.5
20240622072515 76 132 0.0 0.0 0.00 0.00 0.00 92 1017.6
20240622072015 76 132 0.0 0.0 0.00 0.00 0.00 91 1017.6
20240622071518 76 132 0.0 0.0 0.00 0.00 0.00 91 1017.7
20240622071013 76 132 0.0 0.0 0.00 0.00 0.00 91 1017.7
20240622070513 77 132 0.0 0.0 0.00 0.00 0.00 91 1017.7
20240622065512 77 132 0.0 0.0 0.00 0.00 0.00 91 1017.8
20240622065014 77 132 0.0 0.0 0.00 0.00 0.00 91 1017.7
20240622064511 77 132 0.0 0.0 0.00 0.00 0.00 91 1017.7
20240622064011 77 132 0.0 0.0 0.00 0.00 0.00 91 1017.7
20240622063510 77 132 0.0 0.0 0.00 0.00 0.00 91 1017.7
20240622063010 77 132 0.0 0.0 0.00 0.00 0.00 90 1017.8
20240622062508 77 132 0.0 0.0 0.00 0.00 0.00 90 1017.8
20240622062008 77 132 0.0 0.0 0.00 0.00 0.00 90 1017.7
20240622061508 77 132 0.0 0.0 0.00 0.00 0.00 90 1017.7
20240622061008 78 132 0.0 0.0 0.00 0.00 0.00 90 1017.7
20240622060508 78 132 0.0 0.0 0.00 0.00 0.00 90 1017.6
20240622055509 78 132 0.0 0.0 0.00 0.00 0.00 90 1017.6
20240622055006 78 132 0.0 0.0 0.00 0.00 0.00 90 1017.7
20240622054506 78 132 0.0 0.0 0.00 0.00 0.00 90 1017.7
20240622054006 78 132 0.0 0.0 0.00 0.00 0.00 90 1017.7
20240622053505 78 132 0.0 2.0 0.00 0.00 0.00 90 1017.6
20240622053008 78 132 0.0 2.0 0.00 0.00 0.00 90 1017.7
20240622052503 78 133 0.0 1.0 0.00 0.00 0.00 89 1017.7
20240622052003 78 129 0.0 2.0 0.00 0.00 0.00 89 1017.7
20240622051503 78 129 0.0 2.0 0.00 0.00 0.00 89 1017.7
20240622051002 79 146 0.0 0.0 0.00 0.00 0.00 89 1017.7
20240622050501 79 146 0.0 2.0 0.00 0.00 0.00 89 1017.7
20240622045501 79 148 0.0 2.0 0.00 0.00 0.00 89 1017.8
20240622045001 79 147 0.0 3.0 0.00 0.00 0.00 89 1017.9
20240622044501 79 151 0.0 4.0 0.00 0.00 0.00 89 1017.9
20240622044000 79 140 0.0 4.0 0.00 0.00 0.00 89 1017.9
20240622043600 79 129 0.0 0.0 0.00 0.00 0.00 88 1017.9
20240622043100 79 128 0.0 2.0 0.00 0.00 0.00 88 1017.8
20240622042600 79 129 0.0 2.0 0.00 0.00 0.00 88 1017.8
20240622042102 79 142 0.0 1.0 0.00 0.00 0.00 88 1017.8
20240622041600 79 142 0.0 2.0 0.00 0.00 0.00 88 1017.8
20240622041103 80 119 0.0 0.0 0.00 0.00 0.00 88 1017.8
20240622040559 80 119 0.0 0.0 0.00 0.00 0.00 87 1017.9
20240622035559 80 118 0.0 0.0 0.00 0.00 0.00 86 1017.8
20240622035100 80 118 0.0 0.0 0.00 0.00 0.00 86 1017.7
20240622034600 80 118 0.0 0.0 0.00 0.00 0.00 86 1017.7
20240622034059 80 118 0.0 0.0 0.00 0.00 0.00 86 1017.7
20240622033559 80 118 0.0 0.0 0.00 0.00 0.00 85 1017.6
20240622033058 81 118 0.0 0.0 0.00 0.00 0.00 85 1017.5
20240622032558 81 118 0.0 0.0 0.00 0.00 0.00 85 1017.5
20240622032058 81 118 0.0 0.0 0.00 0.00 0.00 85 1017.5
20240622031600 81 118 0.0 0.0 0.00 0.00 0.00 84 1017.4
20240622031059 81 118 0.0 0.0 0.00 0.00 0.00 84 1017.4
20240622030557 81 118 0.0 0.0 0.00 0.00 0.00 84 1017.3
20240622030202 82 119 0.0 0.0 0.00 0.00 0.00 84 1017.2
20240622025557 82 119 0.0 0.0 0.00 0.00 0.00 83 1017.2
20240622025056 82 119 0.0 0.0 0.00 0.00 0.00 83 1017.2
20240622024557 82 119 0.0 0.0 0.00 0.00 0.00 83 1017.1
20240622024100 82 124 0.0 2.0 0.00 0.00 0.00 83 1017.0
20240622023556 82 125 0.0 2.0 0.00 0.00 0.00 82 1017.1
20240622023100 82 125 0.0 1.0 0.00 0.00 0.00 82 1017.0
20240622022555 83 124 0.0 2.0 0.00 0.00 0.00 82 1017.0
20240622022056 83 124 0.0 2.0 0.00 0.00 0.00 82 1017.0
20240622021556 83 124 0.0 3.0 0.00 0.00 0.00 81 1016.9
20240622021055 83 124 0.0 3.0 0.00 0.00 0.00 81 1016.9
20240622020555 84 125 0.0 3.0 0.00 0.00 0.00 80 1016.8
20240622020159 84 125 0.0 3.0 0.00 0.00 0.00 80 1016.8
20240622015602 84 125 0.0 3.0 0.00 0.00 0.00 80 1016.7
20240622015059 85 116 0.0 2.0 0.00 0.00 0.00 79 1016.7
20240622014556 85 114 0.0 3.0 0.00 0.00 0.00 79 1016.7
20240622014055 85 114 0.0 2.0 0.00 0.00 0.00 78 1016.7
20240622013555 85 114 0.0 2.0 0.00 0.00 0.00 78 1016.6
20240622013056 86 115 0.0 3.0 0.00 0.00 0.00 77 1016.6
20240622012555 86 115 0.0 3.0 0.00 0.00 0.00 77 1016.5
20240622012056 86 125 0.0 3.0 0.00 0.00 0.00 76 1016.4
20240622011554 86 132 1.0 5.0 0.00 0.00 0.00 75 1016.4
20240622011058 86 117 0.0 7.0 0.00 0.00 0.00 75 1016.5
20240622010554 87 117 3.0 10.0 0.00 0.00 0.00 74 1016.4
20240622010156 87 129 2.0 10.0 0.00 0.00 0.00 73 1016.5
20240622005554 87 117 2.0 8.0 0.00 0.00 0.00 74 1016.5
20240622005100 88 124 2.0 7.0 0.00 0.00 0.00 73 1016.4
20240622004606 88 121 1.0 7.0 0.00 0.00 0.00 73 1016.4
20240622004056 88 133 0.0 4.0 0.00 0.00 0.00 72 1016.4
20240622003553 88 117 1.0 6.0 0.00 0.00 0.00 72 1016.4
20240622003053 89 131 2.0 7.0 0.00 0.00 0.00 72 1016.3
20240622002554 89 127 1.0 6.0 0.00 0.00 0.00 71 1016.3
20240622002053 89 127 1.0 7.0 0.00 0.00 0.00 71 1016.3
20240622001553 89 113 2.0 8.0 0.00 0.00 0.00 71 1016.3
20240622001057 89 134 2.0 9.0 0.00 0.00 0.00 70 1016.2
20240622000553 89 133 2.0 9.0 0.00 0.00 0.00 70 1016.1
20240622000154 90 137 2.0 8.0 0.00 0.00 0.00 72 1016.1
20240621235553 90 81 3.0 9.0 0.00 0.00 0.00 71 1016.1
20240621235053 90 103 4.0 9.0 0.00 0.00 0.00 71 1016.1
20240621234653 90 78 3.0 11.0 0.00 0.00 0.00 71 1016.1
20240621234053 90 158 4.0 11.0 0.00 0.00 0.00 71 1016.1
20240621233553 90 147 3.0 9.0 0.00 0.00 0.00 70 1016.1
20240621233052 90 120 3.0 12.0 0.00 0.00 0.00 69 1016.1
20240621232552 90 121 5.0 12.0 0.00 0.00 0.00 70 1016.1
20240621232153 90 91 2.0 10.0 0.00 0.00 0.00 71 1016.2
20240621231551 90 164 3.0 10.0 0.00 0.00 0.00 71 1016.2
20240621231051 90 119 3.0 9.0 0.00 0.00 0.00 70 1016.2
20240621230551 90 140 2.0 10.0 0.00 0.00 0.00 71 1016.2
20240621230152 90 100 3.0 10.0 0.00 0.00 0.00 70 1016.2
20240621225551 90 95 4.0 12.0 0.00 0.00 0.00 69 1016.1
20240621225051 91 69 3.0 12.0 0.00 0.00 0.00 68 1016.1
20240621224551 91 75 2.0 9.0 0.00 0.00 0.00 68 1016.0
20240621224051 91 165 3.0 13.0 0.00 0.00 0.00 68 1016.0
20240621223550 91 160 5.0 13.0 0.00 0.00 0.00 68 1016.0
20240621223107 91 159 2.0 9.0 0.00 0.00 0.00 68 1016.0
20240621222549 91 91 4.0 10.0 0.00 0.00 0.00 66 1016.1
20240621222049 91 76 4.0 10.0 0.00 0.00 0.00 69 1016.2
20240621221555 91 87 3.0 9.0 0.00 0.00 0.00 68 1016.2
20240621221047 91 77 3.0 9.0 0.00 0.00 0.00 69 1016.3
20240621220547 91 84 3.0 9.0 0.00 0.00 0.00 69 1016.3
20240621220146 91 69 3.0 9.0 0.00 0.00 0.00 70 1016.3
20240621215544 91 149 1.0 8.0 0.00 0.00 0.00 71 1016.4
20240621215044 90 83 4.0 8.0 0.00 0.00 0.00 72 1016.4
20240621214544 89 109 3.0 7.0 0.00 0.00 0.00 72 1016.5
20240621214045 89 145 3.0 9.0 0.00 0.00 0.00 72 1016.5
20240621213546 89 67 3.0 12.0 0.00 0.00 0.00 70 1016.6
20240621213050 90 83 5.0 12.0 0.00 0.00 0.00 69 1016.8
20240621212541 90 69 3.0 8.0 0.00 0.00 0.00 70 1016.8
20240621212041 89 79 2.0 9.0 0.00 0.00 0.00 72 1016.8
20240621211539 89 86 4.0 9.0 0.00 0.00 0.00 71 1016.8
20240621211039 89 114 0.0 8.0 0.00 0.00 0.00 72 1016.9
20240621210639 89 102 3.0 8.0 0.00 0.00 0.00 71 1017.0
20240621210140 90 120 2.0 12.0 0.00 0.00 0.00 69 1017.1
20240621205541 90 66 3.0 12.0 0.00 0.04 0.00 69 1017.1
20240621205039 90 67 3.0 9.0 0.00 0.04 0.00 68 1017.0
20240621204546 90 99 5.0 9.0 0.00 0.04 0.00 67 1017.0
20240621204043 91 86 3.0 11.0 0.00 0.04 0.00 68 1017.1
20240621203539 91 97 3.0 11.0 0.00 0.04 0.00 67 1017.1
20240621203039 91 49 5.0 9.0 0.00 0.04 0.00 67 1017.1
20240621202537 91 57 5.0 10.0 0.00 0.04 0.00 65 1017.1
20240621202035 91 62 5.0 10.0 0.00 0.04 0.00 65 1017.3
20240621201535 91 88 4.0 10.0 0.00 0.04 0.00 67 1017.3
20240621201037 92 90 5.0 11.0 0.00 0.04 0.00 65 1017.4
20240621200534 91 96 5.0 11.0 0.00 0.04 0.00 67 1017.4
20240621200134 91 61 4.0 11.0 0.00 0.04 0.00 66 1017.5
20240621195532 91 46 5.0 12.0 0.00 0.23 0.00 65 1017.5
20240621195032 91 92 6.0 12.0 0.00 0.23 0.00 66 1017.6
20240621194533 91 73 5.0 11.0 0.00 0.23 0.00 67 1017.6
20240621194033 91 52 2.0 12.0 0.00 0.23 0.00 68 1017.7
20240621193531 91 65 7.0 12.0 0.00 0.23 0.00 67 1017.9
20240621193040 91 80 4.0 10.0 0.00 0.23 0.00 67 1017.9
20240621192528 91 87 2.0 10.0 0.00 0.23 0.00 67 1017.9
20240621192032 91 181 4.0 12.0 0.00 0.23 0.00 71 1018.0
20240621191526 90 77 5.0 12.0 0.00 0.23 0.00 68 1018.0
20240621191025 90 85 6.0 10.0 0.00 0.23 0.00 68 1018.1
20240621190526 90 61 2.0 10.0 0.00 0.23 0.00 70 1018.2
20240621190127 90 50 3.0 13.0 0.00 0.23 0.00 67 1018.4
20240621185526 90 85 3.0 13.0 0.00 0.66 0.00 66 1018.4
20240621185025 90 46 7.0 13.0 0.00 0.66 0.00 69 1018.5
20240621184526 90 40 5.0 10.0 0.00 0.66 0.00 70 1018.6
20240621184026 90 13 5.0 13.0 0.00 0.66 0.00 70 1018.7
20240621183525 90 52 6.0 13.0 0.00 0.66 0.00 68 1018.7
20240621183030 90 75 4.0 10.0 0.00 0.66 0.00 69 1018.7
20240621182524 90 92 4.0 9.0 0.00 0.66 0.00 69 1018.8
20240621182024 90 114 4.0 9.0 0.00 0.66 0.00 71 1018.7
20240621181525 89 96 1.0 9.0 0.00 0.66 0.00 73 1018.8
20240621181022 89 92 4.0 9.0 0.00 0.66 0.00 72 1018.9
20240621180522 89 106 5.0 11.0 0.00 0.66 0.00 70 1019.0
20240621180123 89 69 4.0 11.0 0.00 0.66 0.00 72 1019.2
20240621175523 89 85 4.0 11.0 0.00 0.67 0.00 72 1019.2
20240621175021 88 72 6.0 13.0 0.00 0.67 0.00 71 1019.2
20240621174523 88 86 6.0 13.0 0.00 0.67 0.00 72 1019.2
20240621174021 88 45 6.0 11.0 0.00 0.67 0.00 73 1019.3
20240621173521 88 56 3.0 9.0 0.00 0.67 0.00 74 1019.2
20240621173019 88 65 4.0 13.0 0.00 0.67 0.00 74 1019.2
20240621172518 88 92 6.0 13.0 0.00 0.67 0.00 73 1019.3
20240621172018 88 89 5.0 10.0 0.00 0.67 0.00 74 1019.2
20240621171518 88 82 5.0 10.0 0.00 0.67 0.00 75 1019.2
20240621171016 88 58 4.0 11.0 0.00 0.67 0.00 74 1019.2
20240621170516 87 106 4.0 13.0 0.00 0.67 0.00 75 1019.2
20240621170118 87 95 3.0 10.0 0.00 0.67 0.00 75 1019.3
20240621165514 87 79 6.0 10.0 0.00 0.83 0.00 74 1019.4
20240621165014 87 114 5.0 10.0 0.00 0.83 0.00 77 1019.3
20240621164515 87 84 3.0 10.0 0.00 0.83 0.00 78 1019.4
20240621164014 87 58 4.0 10.0 0.00 0.83 0.00 77 1019.4
20240621163513 87 73 6.0 10.0 0.00 0.83 0.00 76 1019.4
20240621163011 87 106 3.0 9.0 0.00 0.83 0.00 79 1019.5
20240621162511 86 87 2.0 9.0 0.00 0.83 0.00 79 1019.4
20240621162009 86 45 2.0 11.0 0.00 0.83 0.00 80 1019.4
20240621161510 86 25 5.0 11.0 0.00 0.83 0.00 80 1019.5
20240621161009 85 44 4.0 12.0 0.00 0.83 0.00 80 1019.6
20240621160509 85 13 6.0 12.0 0.00 0.83 0.00 79 1019.6
20240621160110 86 94 0.0 7.0 0.00 0.83 0.00 80 1019.6
20240621155510 86 94 3.0 7.0 0.00 0.84 0.00 79 1019.6
20240621155008 86 121 3.0 7.0 0.00 0.84 0.00 81 1019.6
20240621154507 85 31 3.0 9.0 0.00 0.84 0.00 82 1019.6
20240621154007 85 29 4.0 8.0 0.00 0.84 0.00 81 1019.7
20240621153509 85 86 3.0 8.0 0.00 0.84 0.00 82 1019.6
20240621153005 85 111 1.0 6.0 0.00 0.84 0.00 83 1019.7
20240621152503 84 67 0.0 7.0 0.00 0.84 0.00 84 1019.8
20240621152105 84 128 2.0 7.0 0.00 0.84 0.00 83 1019.8
20240621151503 84 115 2.0 10.0 0.00 0.84 0.00 83 1019.8
20240621151001 84 58 4.0 9.0 0.00 0.84 0.00 84 1019.7
20240621150600 84 140 0.0 7.0 0.00 0.84 0.00 86 1019.7
20240621150101 83 42 4.0 10.0 0.00 0.84 0.00 86 1019.6
20240621145559 83 58 3.0 10.0 0.00 0.84 0.00 86 1019.6
20240621145059 83 68 5.0 10.0 0.00 0.84 0.00 87 1019.5
20240621144556 82 62 3.0 9.0 0.00 0.84 0.00 88 1019.5
20240621144055 82 101 3.0 9.0 0.00 0.84 0.00 88 1019.5
20240621143554 82 62 3.0 9.0 0.00 0.84 0.00 88 1019.4
20240621143056 82 90 4.0 9.0 0.00 0.84 0.00 90 1019.3
20240621142552 82 80 5.0 9.0 0.00 0.84 0.00 91 1019.3
20240621142052 81 84 3.0 7.0 0.00 0.84 0.00 92 1019.3
20240621141552 81 77 2.0 8.0 0.00 0.84 0.00 93 1019.2
20240621141049 80 48 3.0 9.0 0.00 0.84 0.00 93 1019.2
20240621140549 80 58 3.0 9.0 0.00 0.84 0.00 94 1019.1
20240621140048 80 62 2.0 8.0 0.00 0.84 0.00 95 1019.0
20240621135548 80 54 2.0 8.0 0.00 0.84 0.00 95 1019.0
20240621135047 80 34 4.0 9.0 0.00 0.84 0.00 95 1018.8
20240621134555 79 91 4.0 9.0 0.00 0.84 0.00 95 1018.8
20240621134145 79 46 2.0 9.0 0.00 0.84 0.00 95 1018.7
20240621133544 79 79 1.0 8.0 0.00 0.84 0.00 96 1018.7
20240621133044 78 72 2.0 7.0 0.00 0.84 0.00 96 1018.8
20240621132543 78 42 3.0 7.0 0.00 0.84 0.00 96 1018.8
20240621132042 78 56 2.0 7.0 0.00 0.84 0.00 96 1018.7
20240621131543 78 71 2.0 6.0 0.00 0.84 0.00 96 1018.7
20240621131046 78 106 2.0 6.0 0.00 0.84 0.00 96 1018.7
20240621130541 78 70 2.0 5.0 0.00 0.84 0.00 96 1018.7
20240621130055 77 62 1.0 5.0 0.00 0.84 0.00 96 1018.6
20240621125541 77 62 1.0 5.0 0.00 0.84 0.00 96 1018.6
20240621125041 77 17 2.0 5.0 0.00 0.84 0.00 96 1018.7
20240621124556 77 79 1.0 3.0 0.00 0.84 0.00 96 1018.6
20240621124041 77 60 1.0 5.0 0.00 0.84 0.00 96 1018.6
20240621123540 77 50 0.0 5.0 0.00 0.84 0.00 96 1018.5
20240621123040 77 59 2.0 4.0 0.00 0.84 0.00 96 1018.5
20240621122539 76 77 1.0 5.0 0.00 0.84 0.00 96 1018.4
20240621122039 76 33 2.0 4.0 0.00 0.84 0.00 96 1018.4
20240621121540 76 30 0.0 4.0 0.00 0.84 0.00 96 1018.4
20240621121039 76 33 1.0 4.0 0.00 0.84 0.00 96 1018.3
20240621120542 76 25 0.0 3.0 0.00 0.84 0.00 96 1018.3
20240621120041 76 63 0.0 3.0 0.00 0.84 0.00 96 1018.3
20240621115544 76 63 0.0 3.0 0.00 0.84 0.00 96 1018.3
20240621115041 76 63 1.0 3.0 0.00 0.84 0.00 96 1018.2
20240621114542 76 75 0.0 0.0 0.00 0.84 0.00 95 1018.2
20240621114041 76 77 0.0 0.0 0.00 0.84 0.00 95 1018.2
20240621113542 76 77 0.0 0.0 0.00 0.84 0.00 95 1018.3
20240621113048 76 77 0.0 0.0 0.00 0.84 0.00 95 1018.2
20240621112541 76 82 0.0 0.0 0.00 0.84 0.00 95 1018.2
20240621112043 76 82 0.0 0.0 0.00 0.84 0.00 95 1018.2
20240621111549 76 82 0.0 0.0 0.00 0.84 0.00 95 1018.2
20240621111040 76 82 0.0 2.0 0.00 0.84 0.00 95 1018.2
20240621110540 76 82 0.0 2.0 0.00 0.84 0.00 95 1018.2
20240621110056 76 82 0.0 3.0 0.00 0.84 0.00 95 1018.1
20240621105540 76 82 0.0 3.0 0.00 0.84 0.00 95 1018.1
20240621105042 76 82 0.0 3.0 0.00 0.84 0.00 95 1018.1
20240621104544 76 86 0.0 2.0 0.00 0.84 0.00 95 1018.0
20240621104038 76 86 0.0 2.0 0.00 0.84 0.00 95 1018.0
20240621103538 76 86 0.0 2.0 0.00 0.84 0.00 95 1017.9
20240621103103 76 86 0.0 2.0 0.00 0.84 0.00 95 1017.9
20240621102540 76 86 0.0 1.0 0.00 0.84 0.00 95 1017.9
20240621102039 76 87 0.0 0.0 0.00 0.84 0.00 95 1017.9
20240621101542 76 87 0.0 0.0 0.00 0.84 0.00 95 1017.8
20240621101038 76 87 0.0 0.0 0.00 0.84 0.00 95 1017.8
20240621100542 76 87 0.0 3.0 0.00 0.84 0.00 95 1017.8
20240621100038 76 87 0.0 3.0 0.00 0.84 0.00 95 1017.9
20240621095535 77 87 0.0 0.0 0.00 0.84 0.00 95 1017.9
20240621095035 77 87 0.0 4.0 0.00 0.84 0.00 95 1017.9
20240621094548 77 87 1.0 4.0 0.00 0.84 0.00 95 1017.8
20240621094037 76 87 1.0 3.0 0.00 0.84 0.00 95 1017.9
20240621093534 77 88 1.0 3.0 0.00 0.84 0.00 95 1017.8
20240621093044 77 88 1.0 3.0 0.00 0.84 0.00 95 1017.9
20240621092533 77 89 1.0 3.0 0.00 0.84 0.00 95 1017.9
20240621092034 77 94 0.0 0.0 0.00 0.84 0.00 95 1017.9
20240621091532 77 94 0.0 0.0 0.00 0.84 0.00 94 1017.9
20240621091032 77 94 0.0 0.0 0.00 0.84 0.00 94 1017.9
20240621090533 77 94 0.0 0.0 0.00 0.84 0.00 94 1017.9
20240621090032 77 95 0.0 2.0 0.00 0.84 0.00 94 1018.1
20240621085536 77 95 0.0 2.0 0.00 0.85 0.00 94 1018.1
20240621085032 77 95 1.0 2.0 0.00 0.85 0.00 94 1018.0
20240621084632 77 95 0.0 2.0 0.00 0.85 0.00 94 1018.0
20240621084034 77 95 0.0 3.0 0.00 0.85 0.00 94 1018.1